Regional Weather Roundup
Issued by NWS Jackson, KY

Home | Current Version | Previous Version | Text Only | Print | Product List | Glossary Off
Versions: 1 2 3 4 5 6 7 8 9 10 11 12 13 14 15 16 17 18 19 20 21 22 23 24 25 26 27 28 29 30 31 32 33 34 35 36 37 38 39 40 41 42 43 44 45 46 47 48 49 50

833
ASUS43 KJKL 230010
RWRJKL

EAST KENTUCKY HOURLY WEATHER ROUNDUP
NATIONAL WEATHER SERVICE JACKSON KY
800 PM EDT SAT JUL 22 2017

NOTE: "FAIR" INDICATES FEW OR NO CLOUDS BELOW 12,000 FEET WITH
NO SIGNIFICANT WEATHER AND/OR OBSTRUCTIONS TO VISIBILITY.

* THESE REPORTS ARE NOT UNDER NWS QUALITY CONTROL AND MAY NOT
  REPORT WEATHER SUCH AS PRECIPITATION AND FOG.

KYZ079-080-083-085-087-088-110-112-115-119-120-230100
...EASTERN KENTUCKY...

CITY           SKY/WX    TMP DP  RH WIND       PRES   REMARKS
JACKSON          N/A     88  71  57 VRB3      29.90R HX  94
6HR MIN TEMP:  80; 6HR MAX TEMP:  91; 6HR PCP:  0.01;

LONDON           N/A     90  70  51 SW7       29.91R HX  95
6HR MIN TEMP:  86; 6HR MAX TEMP:  95; 6HR PCP:  0.02;

SOMERSET*        N/A     88  70  55 W9        29.90R HX  92
MONTICELLO*      N/A     88  76  67 W14       29.91R HX  99
6HR MIN TEMP:  88; 6HR MAX TEMP:  93;

WILLIAMSBURG*    N/A     90  72  55 W5        29.91R HX  96
MIDDLESBORO*     N/A     89  74  60 CALM      29.92R HX  97
6HR MIN TEMP:  89; 6HR MAX TEMP:  95;

HARLAN APT*      N/A     88  70  55 CALM      29.93R HX  92
PIKE CO APT*     N/A     85  73  67 CALM      29.91R HX  92
BIG SANDY APT*   N/A     87  73  63 W3        29.89R HX  95
6HR MIN TEMP:  87; 6HR MAX TEMP:  94;

MOREHEAD APT*    N/A     86  73  66 CALM      29.88R HX  93
ASHLAND*         N/A    N/A N/A N/A MISG        N/A
$$

KYZ035-036-041-042-044-050-067-078-099-230100
...CENTRAL KENTUCKY...

CITY           SKY/WX    TMP DP  RH WIND       PRES   REMARKS
MT STERLING*     N/A     86  73  66 W5        29.88S HX  93
FLEMING/MASON*   N/A     85  76  74 SW8       29.86S HX  95
DANVILLE*        N/A     90  72  55 SW5       29.90R HX  96
LEXINGTON        N/A     89  73  59 W6        29.87R HX  97
6HR MIN TEMP:  89; 6HR MAX TEMP:  94;

FRANKFORT        N/A     89  74  60 SW6       29.84R HX  98
6HR MIN TEMP:  88; 6HR MAX TEMP:  93;

LOUISVILLE       N/A     93  74  53 W12       29.82R HX 103
6HR MIN TEMP:  93; 6HR MAX TEMP:  97;

LEBANON*         N/A     90  73  58 SW7       29.87R HX  98
GLASGOW*         N/A     91  72  54 SW7       29.87R HX  98
BOWLING GREEN    N/A     93  73  52 SW12      29.85S HX 102
6HR MIN TEMP:  93; 6HR MAX TEMP:  97;

$$

KYZ091>093-OHZ055-061-077-WVZ005-015-034-035-042-230100
...SOUTHERN OHIO/WEST VIRGINIA...

CITY           SKY/WX    TMP DP  RH WIND       PRES   REMARKS
COVINGTON      LGT RAIN  80  77  90 W9        29.84R
COLUMBUS         N/A     84  73  69 W14       29.80R HX  90
DAYTON         CLOUDY    82  71  69 NW8       29.84R
WILMINGTON     MOCLDY    84  70  62 W13       29.83R
HUNTINGTON       N/A     86  74  67 SW7       29.83R HX  94
CHARLESTON     MOCLDY    87  74  64 SW9       29.84R HX  95
PINEVILLE*       N/A     80  74  80 MISG      29.96R
BECKLEY          N/A     83  67  58 NW6       29.96R
BLUEFIELD        N/A     82  65  56 W7        30.00R
LOGAN CO APT*    N/A     86  73  66 CALM      29.90R HX  93
$$

VAZ002-007-008-TNZ017-027-036-066-071-230100
...SOUTHWEST VIRGINIA/EAST TENNESSEE...

CITY           SKY/WX    TMP DP  RH WIND       PRES   REMARKS
WISE*            N/A     84  68  58 SW10      30.02R
JONESVILLE*      N/A     90  73  58 W6        29.95R HX  98
ABINGDON*        N/A     89  68  50 W7        29.95R HX  93
BRISTOL          N/A     91  68  46 W10       29.92R HX  95
MORRISTOWN*    CLEAR     90  72  55 NW8       29.91R HX  96
SEVIERVILLE*   CLEAR     91  66  43 W6        29.90R HX  94
KNOXVILLE      MOCLDY    91  68  46 SW12      29.90R HX  95
LAFOLLETTE*    CLEAR     88  75  66 SW5       29.94R HX  97
OAK RIDGE        N/A     91  73  55 W3        29.91R HX  99
CROSSVILLE       N/A     85  70  60 SW5       29.98R
NASHVILLE        N/A     93  71  48 SW7       29.88R HX 100
$$

...KEY TO REMARKS...
VSB - VISIBILITY IN MILES
WCI - WIND CHILL INDEX
HX  - HEAT INDEX

$$




USA.gov is the U.S. government's official web portal to all federal, state and local government web resources and services.